This is the latest recevied weather packets stored in our database for station/object ZL1CTS-13. If no packets are shown the sender has not sent any weather packets the latest 10 day(s).
| Time | Temp. | Humidity | Pressure | Rain* | Wind** | Luminosity | Snow |
|---|---|---|---|---|---|---|---|
| 1788140404 | 17.22° C | 85% | 996.7 hPa | 0 mm | - | - | - |
| 1788140104 | 16.11° C | 89% | 996.8 hPa | 0 mm | - | - | - |
| 1788139805 | 15° C | 90% | 996.8 hPa | 0 mm | - | - | - |
| 1788139804 | 15° C | 90% | 996.8 hPa | 0 mm | - | - | - |
| 1788139503 | 15° C | 89% | 996.9 hPa | 0 mm | - | - | - |
| 1788139204 | 15° C | 87% | 996.8 hPa | 0 mm | - | - | - |
| 1788138905 | 15.56° C | 83% | 996.7 hPa | 0 mm | - | - | - |
| 1788138904 | 15.56° C | 83% | 996.7 hPa | 0 mm | - | - | - |
| 1788138604 | 16.11° C | 82% | 996.8 hPa | 0 mm | - | - | - |
| 1788138304 | 16.11° C | 83% | 997.1 hPa | 0 mm | - | - | - |
| 1788138005 | 16.11° C | 81% | 996.9 hPa | 0 mm | - | - | - |
| 1788138004 | 16.11° C | 81% | 996.9 hPa | 0 mm | - | - | - |
| 1788137705 | 16.67° C | 83% | 997 hPa | 0.76 mm | - | - | - |
| 1788137651 | 16.11° C | 84% | 996.9 hPa | 0.76 mm | - | - | - |
| 1788137404 | 16.11° C | 85% | 997.1 hPa | 0.76 mm | - | - | - |
| 1788137104 | 16.11° C | 85% | 997 hPa | 0.76 mm | - | - | - |
| 1788137103 | 16.11° C | 85% | 997 hPa | 0.76 mm | - | - | - |
| 1788136804 | 16.11° C | 87% | 997.1 hPa | 0.76 mm | - | - | - |
| 1788136506 | 16.11° C | 88% | 997.2 hPa | 0.76 mm | - | - | - |
| 1788136205 | 16.11° C | 91% | 997.3 hPa | 0.76 mm | - | - | - |
| 1788136204 | 16.11° C | 91% | 997.3 hPa | 0.76 mm | - | - | - |
| 1788136119 | 16.11° C | 91% | 997.2 hPa | 0.76 mm | - | - | - |
| 1788135905 | 16.11° C | 93% | 997.3 hPa | 0.76 mm | - | - | - |
| 1788135604 | 15.56° C | 94% | 997.4 hPa | 0.76 mm | - | - | - |
| 1788135321 | 15.56° C | 94% | 997.4 hPa | 0.76 mm | - | - | - |
* Rain latest hour (hover to see other rain measurements)
** Current wind speed in m/s (hover to see current wind gust speed)